Regional Weather Roundup
Issued by NWS

Home | Current Version | Previous Version | Text Only | Print | Product List | Glossary On
Versions: 1 2 3 4 5 6 7 8 9 10 11 12 13 14 15 16 17 18 19 20 21 22 23 24 25 26 27 28 29 30 31 32 33 34 35 36 37 38 39 40 41 42 43 44 45 46 47 48 49 50
000
ASUS44 KOUN 202110
RWROK

WEATHER ROUNDUP FOR OKLAHOMA
NATIONAL WEATHER SERVICE NORMAN OK
400 PM CDT SUN APR 20 2014

NOTE: "FAIR" INDICATES FEW OR NO CLOUDS BELOW 12,000 FEET WITH NO
      SIGNIFICANT WEATHER AND/OR OBSTRUCTIONS TO VISIBILITY.

OKZ001>007-009>012-014-015-017-202200-
NORTHWEST OKLAHOMA AND THE PANHANDLE

CITY           SKY/WX    TMP DP  RH WIND       PRES   REMARKS
GAGE           PTSUNNY   76  53  44 S20G29    29.96F
ENID/VANCE AFB PTSUNNY   74  60  60 S16       30.01F
ENID/WOODRING  CLOUDY    75  57  53 SE16G24   30.01F
$$

OKZ016-021>023-033>039-044-045-202200-
SOUTHWEST OKLAHOMA

CITY           SKY/WX    TMP DP  RH WIND       PRES   REMARKS
LAWTON/REGL    LGT RAIN  64  60  87 SE10      30.05F
LAWTON/FT SILL DRIZZLE   64  59  84 SE9       30.04F
FREDERICK      LGT RAIN  64  62  93 SE9G16    29.99F
CLINTON        PTSUNNY   69  58  67 SE15      30.02F
HOBART         CLOUDY    67  60  78 S17       30.01F
ALTUS AFB      CLOUDY    69  62  78 SE14      29.99F
$$

OKZ018>020-024>031-202200-
CENTRAL OKLAHOMA

CITY           SKY/WX    TMP DP  RH WIND       PRES   REMARKS
OKLAHOMA CITY  LGT RAIN  67  53  61 S16       30.04F
OKC/WILEY POST PTSUNNY   72  49  44 S16G22    30.03F
OKC/TINKER AFB LGT RAIN  72  57  60 S21       30.05F
STILLWATER     CLOUDY    76  55  48 S13       30.03F
GUTHRIE        MOSUNNY   76  56  49 S15G22    30.03F
$$

OKZ008-013-054>072-202200-
NORTHEAST OKLAHOMA

CITY           SKY/WX    TMP DP  RH WIND       PRES   REMARKS
TULSA          CLOUDY    75  57  53 S14       30.05F
TULSA/JONES    PTSUNNY   77  55  46 S9        30.05F
PONCA CITY     PTSUNNY   78  54  43 S8G16     30.02F
BARTLESVILLE   CLOUDY    76  55  48 S12       30.06F
MUSKOGEE       CLOUDY    75  55  49 SW12      30.09F
$$

OKZ032-040>043-046>053-073>077-202200-
SOUTH CENTRAL/SOUTHEAST OKLAHOMA

CITY           SKY/WX    TMP DP  RH WIND       PRES   REMARKS
ARDMORE/DWNTWN   N/A     73  52  46 S8        30.05F
MCALESTER      CLOUDY    78  55  44 SE6       30.07F
$$




USA.gov is the U.S. government's official web portal to all federal, state and local government web resources and services.